Tracking 30995 objects as of 5-Jul-2025
HD Live streaming from Space Station
objects crossing your sky now

USA 40 R/B DEB

Track USA 40 R/B DEB now!
10-day predictions


NORAD ID: 23388
Int'l Code: 1989-061BL
Perigee: 510.4 km
Apogee: 4,710.8 km
Inclination: 57.0 °
Period: 141.2 minutes
Semi major axis: 8981 km
RCS: Unknown
Launch date: August 8, 1989
Source: United States (US)
Launch site: AIR FORCE EASTERN TEST RANGE (AFETR)

Note: This is SATELLITE DEBRIS
Your satellite tracking list
Your tracking list is empty




NASA's NSSDC Master Catalog

Two Line Element Set (TLE):
1 23388U 89061BL  25178.63280321  .00004497  00000-0  23891-2 0  9995
2 23388  56.9857 312.0532 2338351 315.7409  27.8102 10.19931452221882
Source of the keplerian elements: AFSPC